Regional Weather Roundup
Issued by NWS

Home | Current Version | Previous Version | Graphics & Text | Print | Product List | Glossary On
Versions: 1 2 3 4 5 6 7 8 9 10 11 12 13 14 15 16 17 18 19 20 21 22 23 24 25 26 27 28 29 30 31 32 33 34 35 36 37 38 39 40 41 42 43 44 45 46 47 48 49 50
000
ASUS45 KABQ 181301
RWRNM
NEW MEXICO REGIONAL WEATHER ROUNDUP
NATIONAL WEATHER SERVICE ALBUQUERQUE NM
700 AM MDT FRI AUG 18 2017

NOTE: "FAIR" MEANS FEW OR NO CLOUDS BELOW 12,000 FEET AGL WITH NO
       SIGNIFICANT WEATHER OR OBSTRUCTIONS TO VISION.

      THIS PRODUCT IS RELEASED AS TWO VERSIONS.  ONE VERSION NEAR
      THE TOP OF THE HOUR CONTAINING PRELIMINARY DATA FROM ALBUQUERQUE
      AND OTHER STATIONS.  A FINAL VERSION WITH ADDITIONAL DATA IS
      ISSUED ABOUT 10 MINUTES AFTER THE HOUR.

NMZ501-503-504-510>518-181400-
NORTHWEST PLATEAU/NORTHCENTRAL MOUNTAINS

CITY           SKY/WX    TMP DP  RH WIND       PRES   REMARKS
FARMINGTON     FAIR      55  37  50 E6        30.23R
LOS ALAMOS     FAIR      61  33  35 CALM      30.35R
SANTA FE       FAIR      57  40  52 N12       30.28R
TAOS           FAIR      47  37  68 N6        30.39R
ANGEL FIRE     FAIR      34  32  94 CALM      30.47S

$$
NMZ402-403-502-505>509-181400-
WESTCENTRAL MOUNTAINS/SOUTHWEST MOUNTAINS

CITY           SKY/WX    TMP DP  RH WIND       PRES   REMARKS
GALLUP         MOCLDY    47  31  53 CALM      30.32R
GRANTS         FAIR      44  27  52 NW5       30.33R
SILVER CITY    FAIR      60  39  46 NW12      30.21S

$$
NMZ407-409-411-412-181400-
SOUTHERN DESERTS

CITY           SKY/WX    TMP DP  RH WIND       PRES   REMARKS
DEMING         FAIR      59  47  64 CALM      30.14R
LAS CRUCES     FAIR      64  55  72 CALM      30.15R
HOLLOMAN AFB   FAIR      68  55  64 NE8       30.15R
ALAMOGORDO     FAIR      70  54  56 N8        30.14R
T OR C         FAIR      71  42  35 W9        30.16R

$$
NMZ519>523-181400-
CENTRAL VALLEYS/CENTRAL HIGHLANDS

CITY           SKY/WX    TMP DP  RH WIND       PRES   REMARKS
ALBUQUERQUE    FAIR      66  41  40 SE3       30.22R
DOUBLE EAGLE   MOCLDY    57  41  54 VRB3      30.25R
CLINES CORNERS FAIR      60  40  47 SW10      30.33R
BELEN          NOT AVBL
SOCORRO        FAIR      63  42  45 SW3       30.18R

$$
NMZ524>526-539-540-181400-
SOUTHCENTRAL MOUNTAINS

CITY           SKY/WX    TMP DP  RH WIND       PRES   REMARKS
RUIDOSO        FAIR      64  45  48 NW3       30.33R

$$
NMZ527>531-181400-
NORTHEAST HIGHLANDS/NORTHEAST PLAINS

CITY           SKY/WX    TMP DP  RH WIND       PRES   REMARKS
LAS VEGAS      MOCLDY    53  45  74 N7        30.32R
RATON          FAIR      50  47  89 NE6       30.28R
CLAYTON        FAIR      62  60  93 W5        30.19R

$$
NMZ532>537-181400-
EASTCENTRAL PLAINS

CITY           SKY/WX    TMP DP  RH WIND       PRES   REMARKS
SANTA ROSA     FAIR      62  58  88 CALM      30.18R
TUCUMCARI      FAIR      67  62  84 S7        30.12R
CANNON AFB     MOCLDY    65  65 100 E3        30.18R
CLOVIS AIRPORT CLOUDY    66  64  93 NE9       30.18R

$$
NMZ028-029-538-181400-
SOUTHEAST PLAINS

CITY           SKY/WX    TMP DP  RH WIND       PRES   REMARKS
ROSWELL        FAIR      66  61  84 SW3       30.10R
ARTESIA        FAIR      68  68 100 SE5       30.10S
CARLSBAD       FAIR      67  66  97 SE5       30.08R
HOBBS          CLEAR     66  63  88 CALM      30.12R


$$



USA.gov is the U.S. government's official web portal to all federal, state and local government web resources and services.